period_start,C,m1,H,J0,J1,J2,J3,J4,J5,JA,JB,JC,JD,JJ,JK,JN,#
2013-08-13 00:00:20,1.15,4.07,1.00,32.54,36.26,37.54,5.80,34.04,1004.33,2008.83,2067.13,2335.19,2452.79,350.20,310.70,4.52,0000 0000 0000 0000 000000
2013-08-13 00:01:20,1.04,4.07,1.00,32.48,36.25,37.50,5.65,33.96,1004.31,2008.85,2065.77,2334.18,2451.61,349.38,309.57,4.53,0000 0000 0000 0000 000000
2013-08-13 00:02:20,1.01,4.07,1.00,32.46,36.25,37.56,5.64,33.88,1004.29,2008.90,2064.40,2333.12,2450.42,350.59,310.58,4.53,0000 0000 0000 0000 000000
2013-08-13 00:03:21,1.07,4.09,1.00,32.43,36.25,37.57,5.67,33.75,1004.30,2008.82,2062.98,2332.08,2449.25,349.65,309.89,4.54,0000 0000 0000 0000 000000
2013-08-13 00:04:21,1.01,4.09,1.00,32.45,36.25,37.58,5.63,34.00,1004.32,2008.77,2061.59,2330.99,2448.05,349.96,310.15,4.54,0000 0000 0000 0000 000000
2013-08-13 00:05:21,1.02,4.09,1.00,32.41,36.25,37.62,5.60,33.83,1004.33,2008.79,2060.19,2329.90,2446.85,349.85,310.06,4.55,0000 0000 0000 0000 000000
2013-08-13 00:06:22,1.05,4.10,1.00,32.41,36.25,37.56,5.71,33.83,1004.30,2008.80,2058.80,2328.87,2445.66,350.19,310.36,4.56,0000 0000 0000 0000 000000
2013-08-13 00:07:22,1.04,4.10,1.00,32.49,36.25,37.49,5.74,33.67,1004.32,2008.74,2057.39,2327.77,2444.49,350.29,310.61,4.56,0000 0000 0000 0000 000000
2013-08-13 00:08:22,1.01,4.12,1.00,32.46,36.25,37.47,5.75,33.92,1004.31,2008.71,2055.96,2326.71,2443.31,349.48,309.67,4.57,0000 0000 0000 0000 000000
2013-08-13 00:09:22,1.04,4.12,1.00,32.43,36.25,37.45,5.56,33.92,1004.30,2008.77,2054.59,2325.64,2442.12,349.27,309.47,4.57,0000 0000 0000 0000 000000
2013-08-13 00:10:22,1.11,4.12,1.00,32.41,36.25,37.45,5.60,33.92,1004.32,2008.82,2053.17,2324.59,2440.92,350.63,311.04,4.58,0000 0000 0000 0000 000000
2013-08-13 00:11:23,1.11,4.13,1.00,32.38,36.25,37.44,5.80,33.96,1004.33,2008.88,2051.76,2323.52,2439.75,350.16,310.37,4.58,0000 0000 0000 0000 000000
2013-08-13 00:12:23,1.09,4.14,1.00,32.37,36.25,37.43,5.73,33.54,1004.38,2008.94,2050.39,2322.44,2438.59,350.45,310.64,4.59,0000 0000 0000 0000 000000
2013-08-13 00:13:24,1.06,4.14,1.00,32.34,36.24,37.43,5.72,33.92,1004.37,2008.94,2048.99,2321.36,2437.38,350.72,310.92,4.60,0000 0000 0000 0000 000000
2013-08-13 00:14:24,1.05,4.15,1.00,32.33,36.23,37.41,5.91,34.08,1004.38,2008.91,2047.65,2320.33,2436.19,350.20,310.47,4.60,0000 0000 0000 0000 000000
2013-08-13 00:15:24,1.03,4.16,1.00,32.34,36.23,37.43,5.90,34.17,1004.40,2008.92,2046.40,2319.26,2434.98,351.00,310.82,4.61,0000 0000 0000 0000 000000
2013-08-13 00:16:24,1.05,4.17,1.00,32.37,36.23,37.50,5.76,34.13,1004.40,2008.91,2045.02,2318.16,2433.81,350.83,310.94,4.61,0000 0000 0000 0000 000000
2013-08-13 00:17:25,1.03,4.17,1.00,32.35,36.23,37.54,5.73,33.96,1004.41,2008.91,2043.62,2317.07,2432.61,350.45,310.68,4.62,0000 0000 0000 0000 000000
2013-08-13 00:18:25,1.05,4.17,1.00,32.32,36.23,37.53,5.69,33.33,1004.41,2008.93,2042.28,2316.01,2431.50,350.46,310.71,4.63,0000 0000 0000 0000 000000
2013-08-13 00:19:25,1.06,4.18,1.00,32.34,36.23,37.53,5.73,33.71,1004.41,2008.95,2040.93,2314.98,2430.34,350.04,310.93,4.63,0000 0000 0000 0000 000000
2013-08-13 00:20:26,1.03,4.19,1.00,32.41,36.23,37.56,5.75,33.79,1004.41,2008.95,2039.59,2313.95,2429.20,349.89,310.12,4.64,0000 0000 0000 0000 000000
2013-08-13 00:21:26,1.03,4.19,1.00,32.41,36.23,37.60,5.82,33.92,1004.41,2008.94,2038.18,2312.84,2428.02,349.93,310.36,4.64,0000 0000 0000 0000 000000
2013-08-13 00:22:26,1.08,4.20,1.00,32.40,36.23,37.62,5.74,34.13,1004.41,2008.92,2036.82,2311.73,2426.79,349.69,310.01,4.65,0000 0000 0000 0000 000000
2013-08-13 00:23:27,1.06,4.21,1.00,32.32,36.23,37.58,5.73,33.96,1004.41,2008.91,2035.51,2310.67,2425.57,349.56,310.04,4.65,0000 0000 0000 0000 000000
2013-08-13 00:24:27,1.03,4.21,1.00,32.38,36.23,37.51,5.73,33.79,1004.41,2008.94,2034.11,2309.62,2424.38,350.48,310.69,4.66,0000 0000 0000 0000 000000
2013-08-13 00:25:27,1.07,4.21,1.00,32.39,36.23,37.47,5.74,33.92,1004.41,2008.94,2032.72,2308.58,2423.24,350.11,310.29,4.67,0000 0000 0000 0000 000000
2013-08-13 00:26:27,1.07,4.23,1.00,32.38,36.23,37.44,5.65,33.96,1004.41,2008.97,2031.28,2307.58,2422.14,349.77,310.04,4.67,0000 0000 0000 0000 000000
2013-08-13 00:27:28,1.00,4.23,1.00,32.34,36.22,37.43,5.70,34.13,1004.41,2008.95,2029.97,2306.61,2421.10,350.50,310.73,4.68,0000 0000 0000 0000 000000
2013-08-13 00:28:28,0.98,4.24,1.00,32.34,36.22,37.43,5.90,34.21,1004.41,2008.96,2028.76,2305.66,2420.01,350.52,310.75,4.68,0000 0000 0000 0000 000000
2013-08-13 00:29:28,0.93,4.24,1.00,32.37,36.22,37.43,5.63,34.00,1004.41,2008.96,2027.58,2304.74,2418.99,350.27,310.50,4.69,0000 0000 0000 0000 000000
2013-08-13 00:30:28,0.92,4.25,1.00,32.38,36.21,37.43,5.74,33.58,1004.41,2008.97,2026.41,2303.78,2417.93,350.19,310.42,4.70,0000 0000 0000 0000 000000
2013-08-13 00:31:29,0.90,4.25,1.00,32.34,36.20,37.52,5.81,34.04,1004.41,2008.97,2025.24,2302.91,2416.95,349.67,309.99,4.70,0000 0000 0000 0000 000000
2013-08-13 00:32:29,0.87,4.26,1.00,32.34,36.20,37.55,5.74,33.92,1004.41,2008.98,2024.13,2302.01,2415.97,350.09,310.36,4.71,0000 0000 0000 0000 000000
2013-08-13 00:33:29,0.89,4.26,1.00,32.33,36.20,37.58,5.82,33.96,1004.41,2008.96,2022.94,2301.11,2414.90,349.21,309.60,4.71,0000 0000 0000 0000 000000
2013-08-13 00:34:30,0.95,4.27,1.00,32.31,36.20,37.55,5.85,33.71,1004.41,2008.97,2021.75,2300.18,2413.86,351.47,311.62,4.72,0000 0000 0000 0000 000000
2013-08-13 00:35:30,0.94,4.28,1.00,32.31,36.20,37.45,5.81,34.00,1004.41,2008.98,2020.60,2299.25,2412.82,349.71,310.07,4.73,0000 0000 0000 0000 000000
2013-08-13 00:36:30,0.94,4.28,1.00,32.37,36.20,37.42,5.67,33.96,1004.41,2008.99,2019.43,2298.31,2411.78,350.10,310.52,4.73,0000 0000 0000 0000 000000
2013-08-13 00:37:30,0.93,4.29,1.00,32.35,36.20,37.44,5.73,33.63,1004.41,2008.98,2018.25,2297.40,2410.73,349.91,310.21,4.74,0000 0000 0000 0000 000000
2013-08-13 00:38:31,0.89,4.29,1.00,32.34,36.20,37.43,5.74,33.92,1004.41,2008.98,2017.17,2296.53,2409.71,350.04,310.32,4.74,0000 0000 0000 0000 000000
2013-08-13 00:39:31,0.86,4.30,1.00,32.35,36.20,37.40,5.82,34.08,1004.41,2008.98,2016.06,2295.61,2408.69,350.65,311.01,4.75,0000 0000 0000 0000 000000
2013-08-13 00:40:31,0.94,4.30,1.00,32.40,36.20,37.41,5.63,33.92,1004.41,2008.99,2014.84,2294.64,2407.68,349.00,309.56,4.75,0000 0000 0000 0000 000000
2013-08-13 00:41:31,0.94,4.31,1.00,32.39,36.20,37.41,5.80,33.75,1004.41,2008.99,2013.65,2293.69,2406.62,349.88,310.17,4.76,0000 0000 0000 0000 000000
2013-08-13 00:42:32,0.95,4.31,1.00,32.37,36.20,37.40,5.76,34.13,1004.41,2008.99,2012.47,2292.70,2405.51,349.38,310.02,4.77,0000 0000 0000 0000 000000
2013-08-13 00:43:32,0.96,4.32,1.00,32.37,36.20,37.39,5.96,34.29,1004.41,2008.99,2011.26,2291.75,2404.41,350.73,310.91,4.77,0000 0000 0000 0000 000000
2013-08-13 00:44:32,0.94,4.33,1.00,32.34,36.20,37.40,5.71,34.08,1004.41,2008.98,2009.98,2290.74,2403.34,350.36,310.44,4.78,0000 0000 0000 0000 000000
2013-08-13 00:45:32,0.99,4.33,1.00,32.37,36.20,37.41,5.68,34.17,1004.41,2008.98,2008.76,2289.78,2402.26,349.77,310.14,4.78,0000 0000 0000 0000 000000
2013-08-13 00:46:33,0.97,4.34,1.00,32.39,36.19,37.39,5.62,33.92,1004.41,2008.99,2007.57,2288.82,2401.21,349.43,309.73,4.79,0000 0000 0000 0000 000000
2013-08-13 00:47:33,0.94,4.34,1.00,32.34,36.19,37.41,5.71,34.13,1004.41,2008.99,2006.38,2287.85,2400.20,350.56,310.79,4.80,0000 0000 0000 0000 000000
2013-08-13 00:48:33,0.94,4.35,1.00,32.33,36.18,37.41,5.77,34.04,1004.41,2008.99,2005.19,2286.88,2399.09,349.78,310.10,4.80,0000 0000 0000 0000 000000
2013-08-13 00:49:33,0.94,4.35,1.00,32.38,36.18,37.38,5.67,33.92,1004.41,2008.99,2003.99,2285.96,2397.96,349.64,309.93,4.81,0000 0000 0000 0000 000000
2013-08-13 00:50:33,0.97,4.36,1.00,32.38,36.18,37.39,5.67,34.17,1004.41,2008.99,2002.75,2284.93,2396.88,349.58,309.89,4.81,0000 0000 0000 0000 000000
2013-08-13 00:51:34,1.00,4.36,1.00,32.41,36.18,37.38,5.78,33.75,1004.41,2008.99,2001.48,2284.03,2395.80,350.64,310.79,4.82,0000 0000 0000 0000 000000
2013-08-13 00:52:34,0.99,4.37,1.00,32.41,36.18,37.37,5.69,34.17,1004.41,2008.99,2000.25,2283.02,2394.70,350.40,310.58,4.82,0000 0000 0000 0000 000000
2013-08-13 00:53:34,0.99,4.38,1.00,32.41,36.18,37.37,5.71,34.04,1004.41,2008.99,1999.04,2281.99,2393.62,349.98,310.20,4.83,0000 0000 0000 0000 000000
2013-08-13 00:54:34,0.99,4.38,1.00,32.42,36.18,37.35,5.75,33.92,1004.41,2008.99,1997.80,2280.93,2392.46,351.31,311.37,4.84,0000 0000 0000 0000 000000
2013-08-13 00:55:35,1.04,4.39,1.00,32.41,36.18,37.35,5.87,34.38,1004.41,2008.98,1996.51,2280.00,2391.35,350.76,310.90,4.84,0000 0000 0000 0000 000000
2013-08-13 00:56:35,1.01,4.39,1.00,32.40,36.18,37.36,5.76,34.25,1004.41,2008.99,1995.18,2278.93,2390.22,349.73,309.99,4.85,0000 0000 0000 0000 000000
2013-08-13 00:57:35,1.04,4.40,1.00,32.36,36.18,37.39,5.70,33.92,1004.41,2008.99,1993.85,2277.92,2389.06,349.58,309.47,4.85,0000 0000 0000 0000 000000
2013-08-13 00:58:35,1.04,4.41,1.00,32.37,36.18,37.38,5.69,34.00,1004.41,2008.98,1992.54,2276.90,2387.91,349.96,310.23,4.86,0000 0000 0000 0000 000000
2013-08-13 00:59:35,1.04,4.41,1.00,32.39,36.18,37.37,5.78,34.08,1004.41,2008.99,1991.18,2275.86,2386.80,348.89,309.71,4.87,0000 0000 0000 0000 000000
2013-08-13 01:00:36,1.08,4.42,1.00,32.39,36.18,37.40,5.66,33.96,1004.41,2008.99,1989.79,2274.83,2385.69,349.76,309.74,4.87,0000 0000 0000 0000 000000
2013-08-13 01:01:36,1.05,4.42,1.00,32.36,36.18,37.41,5.63,34.00,1004.41,2008.99,1988.54,2273.88,2384.60,349.20,310.02,4.88,0000 0000 0000 0000 000000
2013-08-13 01:02:36,1.01,4.43,1.00,32.36,36.18,37.40,5.58,34.17,1004.41,2008.99,1987.34,2272.83,2383.49,349.69,310.00,4.88,0000 0000 0000 0000 000000
2013-08-13 01:03:37,0.98,4.44,1.00,32.34,36.18,37.41,5.79,34.08,1004.41,2008.99,1986.15,2271.83,2382.33,350.34,310.76,4.89,0000 0000 0000 0000 000000
2013-08-13 01:04:37,0.99,4.44,1.00,32.36,36.18,37.38,5.82,34.17,1004.41,2008.99,1984.92,2270.83,2381.24,350.44,310.54,4.90,0000 0000 0000 0000 000000
2013-08-13 01:05:37,1.02,4.45,1.00,32.31,36.18,37.36,5.75,33.96,1004.41,2008.99,1983.71,2269.81,2380.15,349.19,309.62,4.90,0000 0000 0000 0000 000000
2013-08-13 01:06:38,0.98,4.45,1.00,32.34,36.17,37.34,5.86,34.13,1004.41,2008.99,1982.51,2268.84,2379.02,350.40,310.28,4.91,0000 0000 0000 0000 000000
2013-08-13 01:07:38,0.99,4.46,1.00,32.35,36.17,37.35,5.73,34.04,1004.41,2008.99,1981.30,2267.82,2377.91,351.08,311.24,4.91,0000 0000 0000 0000 000000
2013-08-13 01:08:38,1.01,4.47,1.00,32.41,36.17,37.33,5.55,33.88,1004.41,2008.99,1980.08,2266.85,2376.79,349.60,309.87,4.92,0000 0000 0000 0000 000000
2013-08-13 01:09:39,1.00,4.47,1.00,32.45,36.17,37.33,5.63,33.96,1004.41,2008.99,1978.83,2265.90,2375.72,349.39,309.63,4.92,0000 0000 0000 0000 000000
2013-08-13 01:10:39,0.99,4.48,1.00,32.41,36.16,37.34,5.83,34.04,1004.41,2008.98,1977.61,2264.90,2374.64,351.10,311.19,4.93,0000 0000 0000 0000 000000
2013-08-13 01:11:39,1.02,4.48,1.00,32.37,36.16,37.36,5.56,34.04,1004.41,2008.99,1976.45,2263.92,2373.54,348.88,309.27,4.94,0000 0000 0000 0000 000000
2013-08-13 01:12:39,0.99,4.49,1.00,32.34,36.15,37.36,5.73,34.17,1004.41,2008.99,1975.26,2262.93,2372.48,350.34,310.60,4.94,0000 0000 0000 0000 000000
2013-08-13 01:13:39,0.99,4.50,1.00,32.32,36.15,37.38,5.94,34.42,1004.41,2008.99,1973.98,2261.93,2371.37,348.90,309.33,4.95,0000 0000 0000 0000 000000
2013-08-13 01:14:40,1.02,4.50,1.00,32.38,36.15,37.36,5.71,34.13,1004.41,2008.99,1972.73,2260.95,2370.33,349.94,310.19,4.95,0000 0000 0000 0000 000000
2013-08-13 01:15:40,1.02,4.51,1.00,32.39,36.15,37.34,5.91,34.13,1004.41,2008.99,1971.50,2259.99,2369.22,350.89,311.03,4.96,0000 0000 0000 0000 000000
2013-08-13 01:16:40,1.00,4.51,1.00,32.35,36.15,37.33,5.67,34.00,1004.41,2008.99,1970.23,2259.05,2368.16,349.21,309.58,4.97,0000 0000 0000 0000 000000
2013-08-13 01:17:41,0.99,4.52,1.00,32.36,36.15,37.38,5.85,33.88,1004.41,2008.99,1969.01,2258.05,2367.17,350.38,310.54,4.97,0000 0000 0000 0000 000000
2013-08-13 01:18:41,0.97,4.52,1.00,32.36,36.15,37.38,5.67,34.08,1004.41,2008.99,1967.84,2257.05,2366.13,350.18,310.69,4.98,0000 0000 0000 0000 000000
2013-08-13 01:19:41,1.02,4.53,1.00,32.36,36.15,37.36,5.66,34.04,1004.41,2008.99,1966.55,2256.08,2365.01,349.72,309.87,4.98,0000 0000 0000 0000 000000
2013-08-13 01:20:41,1.02,4.54,1.00,32.40,36.15,37.36,5.81,34.29,1004.41,2008.99,1965.34,2255.03,2363.94,350.44,310.76,4.99,0000 0000 0000 0000 000000
2013-08-13 01:21:41,1.02,4.54,1.00,32.41,36.15,37.36,5.73,34.33,1004.41,2008.99,1964.14,2254.00,2362.84,350.64,310.87,4.99,0000 0000 0000 0000 000000
2013-08-13 01:22:42,1.00,4.55,1.00,32.37,36.15,37.35,5.87,33.79,1004.41,2008.99,1962.90,2253.05,2361.76,350.41,310.62,5.00,0000 0000 0000 0000 000000
2013-08-13 01:23:42,1.01,4.55,1.00,32.35,36.15,37.36,5.63,34.04,1004.41,2008.99,1961.73,2252.07,2360.66,349.76,309.48,5.01,0000 0000 0000 0000 000000
2013-08-13 01:24:42,1.01,4.56,1.00,32.38,36.15,37.35,5.74,34.08,1004.41,2008.99,1960.60,2251.02,2359.54,349.25,309.60,5.01,0000 0000 0000 0000 000000
2013-08-13 01:25:42,1.02,4.57,1.00,32.38,36.15,37.34,5.77,34.04,1004.41,2008.99,1959.43,2249.99,2358.41,349.83,310.30,5.02,0000 0000 0000 0000 000000
2013-08-13 01:26:43,1.01,4.57,1.00,32.40,36.15,37.35,5.75,34.04,1004.41,2008.99,1958.21,2249.01,2357.26,351.18,311.13,5.02,0000 0000 0000 0000 000000
2013-08-13 01:27:43,1.02,4.58,1.00,32.39,36.15,37.34,5.75,33.92,1004.41,2008.99,1957.02,2248.07,2356.17,349.50,309.80,5.03,0000 0000 0000 0000 000000
2013-08-13 01:28:43,0.99,4.58,1.00,32.36,36.14,37.35,5.77,34.17,1004.41,2008.99,1955.81,2247.07,2355.14,349.93,310.04,5.04,0000 0000 0000 0000 000000
2013-08-13 01:29:43,1.00,4.59,1.00,32.37,36.14,37.41,5.71,34.04,1004.41,2008.99,1954.67,2246.07,2354.01,349.75,310.19,5.04,0000 0000 0000 0000 000000
2013-08-13 01:30:43,1.02,4.60,1.00,32.42,36.14,37.42,5.81,34.04,1004.41,2008.99,1953.50,2245.08,2352.98,350.01,310.20,5.05,0000 0000 0000 0000 000000
2013-08-13 01:31:43,1.00,4.60,1.00,32.45,36.13,37.48,5.70,34.17,1004.41,2009.00,1952.32,2244.09,2351.87,349.87,310.07,5.05,0000 0000 0000 0000 000000
2013-08-13 01:32:44,1.00,4.61,1.00,32.38,36.13,37.47,5.83,34.17,1004.43,2009.00,1951.08,2243.07,2350.74,350.92,311.07,5.06,0000 0000 0000 0000 000000
2013-08-13 01:33:44,1.03,4.61,1.00,32.37,36.13,37.48,5.75,34.00,1004.43,2009.00,1949.87,2242.08,2349.64,350.62,310.81,5.07,0000 0000 0000 0000 000000
2013-08-13 01:34:44,1.03,4.62,1.00,32.30,36.13,37.51,5.67,34.00,1004.42,2009.00,1948.68,2241.15,2348.59,349.61,310.02,5.07,0000 0000 0000 0000 000000
2013-08-13 01:35:44,0.97,4.62,1.00,32.29,36.13,37.47,5.73,34.00,1004.44,2009.00,1947.52,2240.22,2347.54,349.38,310.10,5.08,0000 0000 0000 0000 000000
2013-08-13 01:36:45,0.99,4.63,1.00,32.31,36.13,37.40,5.84,34.25,1004.44,2009.00,1946.34,2239.34,2346.49,350.62,310.88,5.08,0000 0000 0000 0000 000000
2013-08-13 01:37:45,0.95,4.64,1.00,32.37,36.13,37.36,5.63,33.88,1004.42,2009.02,1945.23,2238.48,2345.47,348.90,309.20,5.09,0000 0000 0000 0000 000000
2013-08-13 01:38:45,0.92,4.64,1.00,32.39,36.13,37.33,5.68,33.92,1004.41,2009.03,1944.10,2237.57,2344.43,350.29,310.52,5.09,0000 0000 0000 0000 000000
2013-08-13 01:39:46,0.96,4.65,1.00,32.34,36.13,37.37,5.71,34.04,1004.41,2009.02,1942.90,2236.58,2343.33,349.62,310.03,5.10,0000 0000 0000 0000 000000
2013-08-13 01:40:46,1.00,4.65,1.00,32.36,36.13,37.42,5.72,34.08,1004.42,2009.00,1941.66,2235.60,2342.25,349.92,310.20,5.11,0000 0000 0000 0000 000000
2013-08-13 01:41:46,1.02,4.66,1.00,32.34,36.13,37.50,5.76,34.21,1004.41,2009.00,1940.50,2234.65,2341.25,349.95,310.01,5.11,0000 0000 0000 0000 000000
2013-08-13 01:42:46,0.98,4.66,1.00,32.34,36.13,37.50,5.73,34.33,1004.42,2009.00,1939.31,2233.64,2340.20,350.81,310.61,5.12,0000 0000 0000 0000 000000
2013-08-13 01:43:47,1.01,4.67,1.00,32.32,36.13,37.49,5.85,34.17,1004.41,2009.00,1938.13,2232.62,2339.07,350.12,310.42,5.12,0000 0000 0000 0000 000000
2013-08-13 01:44:47,1.01,4.68,1.00,32.27,36.13,37.49,5.77,34.13,1004.41,2009.00,1937.04,2231.63,2337.93,349.94,310.37,5.13,0000 0000 0000 0000 000000
2013-08-13 01:45:47,1.00,4.68,1.00,32.27,36.13,37.43,5.71,34.29,1004.41,2009.00,1935.81,2230.67,2336.84,350.14,310.49,5.14,0000 0000 0000 0000 000000
2013-08-13 01:46:47,1.00,4.69,1.00,32.35,36.13,37.37,5.65,34.08,1004.41,2009.01,1934.62,2229.72,2335.79,350.23,310.47,5.14,0000 0000 0000 0000 000000
2013-08-13 01:47:48,1.03,4.69,1.00,32.33,36.12,37.37,5.73,33.96,1004.41,2009.00,1933.45,2228.79,2334.72,350.09,310.38,5.15,0000 0000 0000 0000 000000
2013-08-13 01:48:48,0.99,4.70,1.00,32.31,36.12,37.36,5.66,34.13,1004.41,2009.00,1932.27,2227.87,2333.71,349.11,309.53,5.15,0000 0000 0000 0000 000000
2013-08-13 01:49:48,0.98,4.71,1.00,32.28,36.12,37.34,5.73,34.17,1004.41,2009.00,1931.11,2226.83,2332.61,350.32,310.63,5.16,0000 0000 0000 0000 000000
2013-08-13 01:50:48,1.03,4.71,1.00,32.31,36.12,37.39,5.89,34.38,1004.41,2009.00,1929.95,2225.82,2331.48,350.58,310.57,5.16,0000 0000 0000 0000 000000
2013-08-13 01:51:49,1.01,4.72,1.00,32.40,36.11,37.42,5.72,34.13,1004.41,2009.00,1928.77,2224.83,2330.39,349.64,309.92,5.17,0000 0000 0000 0000 000000
2013-08-13 01:52:49,1.03,4.72,1.00,32.37,36.11,37.40,5.82,34.21,1004.41,2009.01,1927.60,2223.88,2329.34,349.89,310.16,5.18,0000 0000 0000 0000 000000
2013-08-13 01:53:49,1.04,4.73,1.00,32.32,36.10,37.36,5.75,34.08,1004.41,2009.00,1926.46,2222.93,2328.25,350.51,310.76,5.18,0000 0000 0000 0000 000000
2013-08-13 01:54:49,1.00,4.74,1.00,32.37,36.10,37.35,5.73,34.13,1004.41,2009.01,1925.26,2221.98,2327.20,349.71,310.00,5.19,0000 0000 0000 0000 000000
2013-08-13 01:55:49,1.01,4.74,1.00,32.37,36.10,37.34,5.68,34.21,1004.41,2009.00,1924.13,2220.96,2326.10,350.27,310.49,5.19,0000 0000 0000 0000 000000
2013-08-13 01:56:50,1.00,4.75,1.00,32.38,36.10,37.34,5.70,34.17,1004.42,2009.01,1922.99,2219.98,2324.98,349.82,310.10,5.20,0000 0000 0000 0000 000000
2013-08-13 01:57:50,1.00,4.75,1.00,32.38,36.10,37.34,5.60,34.13,1004.41,2009.02,1921.81,2218.95,2323.88,349.05,309.73,5.21,0000 0000 0000 0000 000000
2013-08-13 01:58:50,1.07,4.76,1.00,32.36,36.10,37.34,5.76,34.08,1004.41,2009.04,1920.66,2218.01,2322.85,350.23,310.31,5.21,0000 0000 0000 0000 000000
2013-08-13 01:59:50,1.00,4.77,1.00,32.37,36.10,37.34,5.73,34.04,1004.41,2009.04,1919.55,2217.05,2321.78,350.21,310.47,5.22,0000 0000 0000 0000 000000
2013-08-13 02:00:51,0.99,4.77,1.00,32.37,36.10,37.35,5.73,34.13,1004.41,2009.05,1918.41,2216.12,2320.71,350.17,310.73,5.22,0000 0000 0000 0000 000000
2013-08-13 02:01:51,1.01,4.78,1.00,32.41,36.10,37.33,5.69,34.04,1004.41,2009.05,1917.29,2215.14,2319.62,349.90,310.24,5.23,0000 0000 0000 0000 000000
2013-08-13 02:02:51,1.02,4.78,1.00,32.40,36.10,37.34,5.78,34.13,1004.41,2009.02,1916.10,2214.20,2318.58,349.94,310.27,5.24,0000 0000 0000 0000 000000
2013-08-13 02:03:51,0.97,4.79,1.00,32.40,36.10,37.35,5.81,33.96,1004.41,2009.01,1914.94,2213.22,2317.52,350.04,309.99,5.24,0000 0000 0000 0000 000000
2013-08-13 02:04:52,0.98,4.79,1.00,32.37,36.10,37.35,5.83,34.17,1004.41,2009.01,1913.77,2212.22,2316.45,350.25,310.70,5.25,0000 0000 0000 0000 000000
2013-08-13 02:05:52,1.03,4.80,1.00,32.34,36.10,37.33,5.83,34.17,1004.41,2009.02,1912.64,2211.22,2315.37,350.36,310.61,5.25,0000 0000 0000 0000 000000
2013-08-13 02:06:52,1.05,4.81,1.00,32.31,36.10,37.33,5.72,34.17,1004.41,2009.03,1911.43,2210.26,2314.34,349.62,310.05,5.26,0000 0000 0000 0000 000000
2013-08-13 02:07:52,1.05,4.81,1.00,32.30,36.10,37.35,5.60,34.00,1004.41,2009.02,1910.26,2209.30,2313.30,349.40,309.96,5.26,0000 0000 0000 0000 000000
2013-08-13 02:08:52,1.00,4.82,1.00,32.33,36.10,37.32,5.75,34.00,1004.41,2009.02,1909.08,2208.33,2312.21,348.96,309.38,5.27,0000 0000 0000 0000 000000
2013-08-13 02:09:53,1.00,4.82,1.00,32.31,36.10,37.34,5.63,34.17,1004.41,2009.04,1907.93,2207.36,2311.12,350.05,310.36,5.28,0000 0000 0000 0000 000000
2013-08-13 02:10:53,1.03,4.83,1.00,32.29,36.10,37.34,5.62,34.08,1004.41,2009.05,1906.77,2206.36,2310.03,349.79,310.15,5.28,0000 0000 0000 0000 000000
2013-08-13 02:11:53,1.05,4.84,1.00,32.29,36.10,37.31,5.93,34.29,1004.41,2009.06,1905.63,2205.39,2308.97,350.92,311.34,5.29,0000 0000 0000 0000 000000
2013-08-13 02:12:53,1.00,4.84,1.00,32.38,36.10,37.31,5.51,34.00,1004.41,2009.11,1904.54,2204.43,2307.95,349.12,309.17,5.29,0000 0000 0000 0000 000000
2013-08-13 02:13:53,1.06,4.85,1.00,32.37,36.09,37.32,5.78,34.17,1004.41,2009.13,1903.31,2203.45,2306.84,350.39,310.60,5.30,0000 0000 0000 0000 000000
2013-08-13 02:14:54,1.03,4.86,1.00,32.37,36.09,37.33,5.82,34.08,1004.41,2009.12,1902.13,2202.43,2305.69,349.94,310.22,5.31,0000 0000 0000 0000 000000
2013-08-13 02:15:54,1.07,4.86,1.00,32.37,36.09,37.32,6.02,34.29,1004.41,2009.11,1900.99,2201.43,2304.62,351.04,311.18,5.31,0000 0000 0000 0000 000000
2013-08-13 02:16:54,1.02,4.87,1.00,32.37,36.09,37.31,5.74,34.17,1004.41,2009.08,1899.86,2200.42,2303.59,349.59,309.98,5.32,0000 0000 0000 0000 000000
2013-08-13 02:17:54,0.95,4.87,1.00,32.38,36.09,37.34,5.60,34.00,1004.43,2009.06,1898.69,2199.42,2302.53,350.22,310.51,5.32,0000 0000 0000 0000 000000
2013-08-13 02:18:54,1.05,4.88,1.00,32.36,36.09,37.38,5.82,34.04,1004.42,2009.04,1897.54,2198.44,2301.48,350.47,310.69,5.33,0000 0000 0000 0000 000000
2013-08-13 02:19:55,0.98,4.89,1.00,32.34,36.08,37.36,5.77,34.04,1004.41,2009.09,1896.42,2197.47,2300.44,350.32,310.57,5.33,0000 0000 0000 0000 000000
2013-08-13 02:20:55,1.09,4.89,1.00,32.37,36.08,37.35,5.88,34.08,1004.41,2009.15,1895.24,2196.49,2299.33,350.89,310.72,5.34,0000 0000 0000 0000 000000
2013-08-13 02:21:55,1.12,4.90,1.00,32.38,36.08,37.34,5.74,34.00,1004.41,2009.14,1894.08,2195.50,2298.24,350.18,310.41,5.35,0000 0000 0000 0000 000000
2013-08-13 02:22:56,1.04,4.90,1.00,32.39,36.08,37.33,5.51,34.04,1004.41,2009.15,1892.92,2194.49,2297.14,349.19,309.53,5.35,0000 0000 0000 0000 000000
2013-08-13 02:23:56,1.05,4.91,1.00,32.39,36.08,37.32,5.66,34.13,1004.41,2009.09,1891.79,2193.48,2295.99,349.93,310.18,5.36,0000 0000 0000 0000 000000
2013-08-13 02:24:56,0.98,4.92,1.00,32.40,36.08,37.30,5.94,34.13,1004.41,2009.04,1890.62,2192.49,2294.88,350.53,310.64,5.36,0000 0000 0000 0000 000000
2013-08-13 02:25:56,0.99,4.92,1.00,32.43,36.08,37.33,5.75,34.21,1004.41,2009.08,1889.44,2191.47,2293.82,351.30,311.35,5.37,0000 0000 0000 0000 000000
2013-08-13 02:26:57,1.08,4.93,1.00,32.39,36.08,37.34,5.68,33.63,1004.41,2009.12,1888.30,2190.46,2292.69,348.59,308.83,5.38,0000 0000 0000 0000 000000
2013-08-13 02:27:57,1.10,4.93,1.00,32.38,36.08,37.34,5.80,34.25,1004.42,2009.17,1887.13,2189.45,2291.63,350.20,310.43,5.38,0000 0000 0000 0000 000000
2013-08-13 02:28:57,1.11,4.94,1.00,32.33,36.08,37.31,5.61,34.00,1004.42,2009.19,1885.92,2188.40,2290.50,349.91,310.22,5.39,0000 0000 0000 0000 000000
2013-08-13 02:29:57,1.16,4.95,1.00,32.40,36.08,37.31,5.56,33.92,1004.42,2009.15,1884.76,2187.41,2289.42,349.57,309.85,5.39,0000 0000 0000 0000 000000
2013-08-13 02:30:57,0.96,4.95,1.00,32.41,36.08,37.32,5.57,33.96,1004.41,2009.16,1883.57,2186.43,2288.37,349.55,310.25,5.40,0000 0000 0000 0000 000000
2013-08-13 02:31:58,1.07,4.96,1.00,32.37,36.08,37.35,5.58,33.75,1004.42,2009.15,1882.44,2185.39,2287.25,349.24,309.59,5.40,0000 0000 0000 0000 000000
2013-08-13 02:32:58,1.07,4.97,1.00,32.35,36.08,37.35,5.96,34.13,1004.41,2009.18,1881.33,2184.33,2286.11,350.82,311.01,5.41,0000 0000 0000 0000 000000
2013-08-13 02:33:58,1.10,4.97,1.00,32.35,36.08,37.34,5.71,33.83,1004.41,2009.18,1880.21,2183.29,2284.95,349.50,309.83,5.42,0000 0000 0000 0000 000000
2013-08-13 02:34:58,1.14,4.98,1.00,32.34,36.08,37.33,5.71,33.92,1004.41,2009.14,1879.00,2182.31,2283.86,349.60,309.94,5.42,0000 0000 0000 0000 000000
2013-08-13 02:35:58,0.98,4.98,1.00,32.37,36.08,37.41,5.91,34.08,1004.42,2009.09,1877.82,2181.24,2282.70,349.45,309.79,5.43,0000 0000 0000 0000 000000
2013-08-13 02:36:59,1.03,4.99,1.00,32.38,36.08,37.37,5.78,33.96,1004.42,2009.06,1876.66,2180.22,2281.58,350.52,310.70,5.43,0000 0000 0000 0000 000000